Miscellaneous Local Product
Issued by NWS North Platte, NE

Home | Current Version | Previous Version | Text Only | Print | Product List | Glossary On
Versions: 1 2 3 4 5 6 7 8 9 10 11 12 13 14 15 16 17 18 19 20 21 22 23 24 25 26 27 28 29 30 31 32 33 34 35 36 37 38 39 40 41 42 43 44 45 46 47 48 49 50
000
AXUS43 KLBF 010010
MISLBF


WESTERN AND NORTH CENTRAL NEBRASKA HOURLY WEATHER ROUNDUP
NATIONAL WEATHER SERVICE NORTH PLATTE NE
700 PM CDT TUE SEP 30 2014

***STATIONS NOT REPORTING VARIABLES SUCH AS SKY/WEATHER OR
PRESSURE ARE PROVIDED BY THE NEBRASKA DEPARTMENT OF
ROADS...RAWS...AND APRS NETWORKS...AND ARE NOT UNDER
NATIONAL WEATHER SERVICE QUALITY CONTROL***

...OBSERVATIONS IN AND NEAR THE EASTERN PANHANDLE OF NEBRASKA...

CITY           SKY/WX    TMP DP  RH WIND       PRES   REMARKS
PINE RIDGE     PTCLDY    60  48  64 SW6       29.66R
CHADRON        PTCLDY    64  49  57 W3        29.65S
ALLIANCE       MOCLDY    64  40  41 W16G25    29.71S
SIDNEY         LGT RAIN  65  39  38 W12       29.78R
WHITECLAY        N/A     63  45  50 CALM        N/A
RUSHVILLE        N/A     65  34  31 NW12        N/A
LISCO            N/A     67  40  36 W6          N/A
BIG SPRINGS      N/A     72  40  31 SW5         N/A
$$

...OBSERVATIONS IN NORTH CENTRAL NEBRASKA...

CITY           SKY/WX    TMP DP  RH WIND       PRES   REMARKS
VALENTINE      CLEAR     70  43  37 W14G22    29.66R
THEDFORD       MOCLDY    71  43  36 W6        29.71R
AINSWORTH      CLEAR     68  43  40 W7        29.67R
O`NEILL        CLEAR     72  47  41 S5        29.67S
ORD            CLEAR     70  47  43 SW7       29.67S
BROKEN BOW     MOCLDY    73  46  38 S6        29.70R
SPRINGVIEW       N/A     72  48  42 W5          N/A
ROSE             N/A     74  48  39 S5          N/A
NEWPORT          N/A     72  47  40 SW8         N/A
SARGENT          N/A     74  44  33 MISG        N/A
COMSTOCK         N/A     74  51  43 S6          N/A
CHAMBERS         N/A     67  44  43 CALM        N/A
EWING            N/A     68  61  78 CALM        N/A
$$

...OBSERVATIONS IN SOUTHWEST NEBRASKA AND FAR NORTHEAST COLORADO...

CITY           SKY/WX    TMP DP  RH WIND       PRES   REMARKS
WRAY           MOCLDY    70  41  35 SE5       29.76R
HOLYOKE        FAIR      68  46  45 CALM      29.76R
IMPERIAL       PTCLDY    70  42  36 S8        29.74R
OGALLALA       MOCLDY    69  42  37 CALM      29.72S
NORTH PLATTE   MOCLDY    69  45  41 S7        29.71R
MCCOOK         CLEAR     75  42  30 SE6       29.72S
LEXINGTON      MOCLDY    70  47  43 S5        29.71S
PAXTON           N/A     75  41  30 SW7         N/A
SUTHERLAND       N/A     76  33  20 SW7         N/A
BRADY            N/A     73  48  41 CALM        N/A
GOTHENBURG       N/A     76  40  27 S8          N/A
CALLAWAY         N/A     74  48  39 SW10        N/A
$$

...SOME WEATHER OBSERVATIONS FROM AROUND THE REGION...

CITY           SKY/WX    TMP DP  RH WIND       PRES   REMARKS
DENVER         CLOUDY    62  38  40 N5        29.82S
LARAMIE        CLOUDY    47  35  63 W15       29.88R
CHEYENNE       CLOUDY    55  37  50 SW10      29.84S
SCOTTSBLUFF    PTCLDY    66  42  41 W15       29.73R
RAPID CITY     MOCLDY    65  44  46 W8        29.60R
PIERRE         PTCLDY    65  52  62 SW20      29.52R
WINNER         FAIR      72  46  39 W18G26    29.60R
SIOUX FALLS    CLOUDY    66  61  84 S20G26    29.71S
OMAHA          TSTM      66  63  90 SE10      29.78F FOG
GRAND ISLAND   CLEAR     69  61  75 SE7       29.72S
KANSAS CITY    MOCLDY    75  58  55 S9        29.79S
WICHITA        MOCLDY    83  58  42 S18G26    29.70S
HAYS           CLEAR     75  63  64 N6        29.67S
LIBERAL        CLEAR     79  41  25 NW8       29.73F
GOODLAND       CLEAR     70  40  33 S3        29.77S
$$



USA.gov is the U.S. government's official web portal to all federal, state and local government web resources and services.